Time,TemperatureF,DewpointF,PressureIn,WindDirection,WindDirectionDegrees,WindSpeedMPH,WindSpeedGustMPH,Humidity,HourlyPrecipIn,Conditions,Clouds,dailyrainin,SoftwareType,DateUTC
2013-09-10 00:01:00,50.3,47.8,29.78,West,263,2.0,2.0,91,0.00,,BKN001,0.00,VWS V14.00,2013-09-10 06:01:00,
2013-09-10 00:06:00,50.4,48.2,29.78,WSW,253,2.0,3.0,92,0.00,,BKN001,0.00,VWS V14.00,2013-09-10 06:06:00,
2013-09-10 00:11:00,50.3,47.8,29.78,SW,234,2.0,5.0,91,0.00,,BKN001,0.00,VWS V14.00,2013-09-10 06:11:00,
2013-09-10 00:16:00,50.2,47.7,29.78,SW,215,0.0,5.0,91,0.00,,BKN001,0.00,VWS V14.00,2013-09-10 06:16:00,
2013-09-10 00:21:00,50.1,47.6,29.78,SW,215,0.0,5.0,91,0.00,,BKN001,0.00,VWS V14.00,2013-09-10 06:21:00,
2013-09-10 00:26:00,50.0,47.8,29.78,ESE,102,1.0,5.0,92,0.00,,BKN001,0.00,VWS V14.00,2013-09-10 06:26:00,
2013-09-10 00:31:00,49.9,47.7,29.78,SSE,165,1.0,1.0,92,0.00,,BKN001,0.00,VWS V14.00,2013-09-10 06:31:00,
2013-09-10 00:36:00,49.9,47.7,29.78,ESE,123,1.0,3.0,92,0.00,,BKN001,0.00,VWS V14.00,2013-09-10 06:36:00,
2013-09-10 00:41:00,49.9,47.7,29.78,East,79,4.0,4.0,92,0.00,,BKN001,0.00,VWS V14.00,2013-09-10 06:41:00,
2013-09-10 00:46:00,49.9,47.7,29.78,East,96,3.0,4.0,92,0.00,,BKN001,0.00,VWS V14.00,2013-09-10 06:46:00,
2013-09-10 00:51:00,49.9,47.7,29.78,East,91,2.0,4.0,92,0.00,,BKN001,0.00,VWS V14.00,2013-09-10 06:51:00,
2013-09-10 00:56:00,49.8,47.6,29.78,East,90,0.0,4.0,92,0.00,,BKN001,0.00,VWS V14.00,2013-09-10 06:56:00,
2013-09-10 01:01:00,49.7,47.5,29.78,East,91,2.0,2.0,92,0.00,,BKN001,0.00,VWS V14.00,2013-09-10 07:01:00,
2013-09-10 01:06:00,49.6,47.4,29.78,SE,136,1.0,2.0,92,0.00,,BKN001,0.00,VWS V14.00,2013-09-10 07:06:00,
2013-09-10 01:11:00,49.5,47.3,29.78,SE,136,2.0,2.0,92,0.00,,BKN001,0.00,VWS V14.00,2013-09-10 07:11:00,
2013-09-10 01:16:00,49.3,47.4,29.78,East,100,2.0,3.0,93,0.00,,BKN001,0.00,VWS V14.00,2013-09-10 07:16:00,
2013-09-10 01:21:00,49.1,47.2,29.78,ESE,102,1.0,3.0,93,0.00,,BKN001,0.00,VWS V14.00,2013-09-10 07:21:00,
2013-09-10 01:26:00,49.0,47.1,29.78,East,91,2.0,3.0,93,0.00,,BKN001,0.00,VWS V14.00,2013-09-10 07:26:00,
2013-09-10 01:31:00,48.9,47.0,29.78,SE,132,2.0,4.0,93,0.00,,BKN001,0.00,VWS V14.00,2013-09-10 07:31:00,
2013-09-10 01:36:00,48.8,46.9,29.78,SE,129,2.0,4.0,93,0.00,,BKN001,0.00,VWS V14.00,2013-09-10 07:36:00,
2013-09-10 01:41:00,48.7,46.8,29.79,SE,146,0.0,4.0,93,0.00,,BKN001,0.00,VWS V14.00,2013-09-10 07:41:00,
2013-09-10 01:46:00,48.7,47.0,29.79,SE,139,1.0,4.0,94,0.00,,BKN001,0.00,VWS V14.00,2013-09-10 07:46:00,
2013-09-10 01:51:00,48.6,47.0,29.79,East,92,0.0,4.0,94,0.00,,BKN001,0.00,VWS V14.00,2013-09-10 07:51:00,
2013-09-10 01:56:00,48.6,47.0,29.79,East,91,0.0,4.0,94,0.00,,BKN001,0.00,VWS V14.00,2013-09-10 07:56:00,
2013-09-10 02:01:00,48.5,46.9,29.79,East,91,0.0,0.0,94,0.00,,BKN001,0.00,VWS V14.00,2013-09-10 08:01:00,
2013-09-10 02:06:00,48.4,46.8,29.79,East,91,0.0,0.0,94,0.00,,BKN001,0.00,VWS V14.00,2013-09-10 08:06:00,
2013-09-10 02:11:00,48.3,46.7,29.79,ESE,102,0.0,0.0,94,0.00,,BKN001,0.00,VWS V14.00,2013-09-10 08:11:00,
2013-09-10 02:16:00,48.2,46.6,29.80,East,98,0.0,0.0,94,0.00,,BKN001,0.00,VWS V14.00,2013-09-10 08:16:00,
2013-09-10 02:21:00,48.2,46.6,29.79,East,91,0.0,0.0,94,0.00,,BKN001,0.00,VWS V14.00,2013-09-10 08:21:00,
2013-09-10 02:26:00,48.3,46.7,29.80,East,91,0.0,0.0,94,0.00,,BKN001,0.00,VWS V14.00,2013-09-10 08:26:00,
2013-09-10 02:31:00,48.4,47.0,29.80,SSE,160,0.0,0.0,95,0.00,,BKN001,0.00,VWS V14.00,2013-09-10 08:31:00,
2013-09-10 02:36:00,48.5,46.9,29.80,SSE,159,0.0,2.0,94,0.00,,BKN001,0.00,VWS V14.00,2013-09-10 08:36:00,
2013-09-10 02:41:00,48.5,47.1,29.80,SSE,158,0.0,2.0,95,0.00,,BKN001,0.00,VWS V14.00,2013-09-10 08:41:00,
2013-09-10 02:46:00,48.6,47.2,29.80,SSE,158,0.0,2.0,95,0.00,,BKN001,0.00,VWS V14.00,2013-09-10 08:46:00,
2013-09-10 02:51:00,48.6,47.2,29.80,SSE,159,1.0,2.0,95,0.00,,BKN001,0.00,VWS V14.00,2013-09-10 08:51:00,
2013-09-10 02:56:00,48.6,47.2,29.80,SSE,158,0.0,2.0,95,0.00,,BKN001,0.00,VWS V14.00,2013-09-10 08:56:00,
2013-09-10 03:01:00,48.7,47.3,29.80,SW,225,0.0,1.0,95,0.00,,BKN001,0.00,VWS V14.00,2013-09-10 09:01:00,
2013-09-10 03:06:00,48.8,47.4,29.79,SW,232,0.0,1.0,95,0.00,,BKN001,0.00,VWS V14.00,2013-09-10 09:06:00,
2013-09-10 03:11:00,48.7,47.3,29.79,SW,231,1.0,1.0,95,0.00,,BKN001,0.00,VWS V14.00,2013-09-10 09:11:00,
2013-09-10 03:16:00,48.6,47.2,29.79,SSE,165,1.0,2.0,95,0.00,,BKN001,0.00,VWS V14.00,2013-09-10 09:16:00,
2013-09-10 03:21:00,48.6,47.2,29.79,WSW,256,1.0,3.0,95,0.00,,BKN001,0.00,VWS V14.00,2013-09-10 09:21:00,
2013-09-10 03:26:00,48.6,47.2,29.79,WSW,256,0.0,3.0,95,0.00,,BKN001,0.00,VWS V14.00,2013-09-10 09:26:00,
2013-09-10 03:31:00,48.5,46.9,29.78,WSW,256,0.0,0.0,94,0.00,,BKN001,0.00,VWS V14.00,2013-09-10 09:31:00,
2013-09-10 03:36:00,48.4,46.8,29.78,WSW,256,0.0,0.0,94,0.00,,BKN001,0.00,VWS V14.00,2013-09-10 09:36:00,
2013-09-10 03:41:00,48.3,46.7,29.78,WSW,256,0.0,0.0,94,0.00,,BKN001,0.00,VWS V14.00,2013-09-10 09:41:00,
2013-09-10 03:46:00,48.3,46.9,29.78,WSW,256,1.0,3.0,95,0.00,,BKN001,0.00,VWS V14.00,2013-09-10 09:46:00,
2013-09-10 03:51:00,48.5,47.1,29.78,ENE,63,3.0,3.0,95,0.00,,BKN001,0.00,VWS V14.00,2013-09-10 09:51:00,
2013-09-10 03:56:00,48.6,47.2,29.77,ENE,69,1.0,3.0,95,0.00,,BKN001,0.00,VWS V14.00,2013-09-10 09:56:00,
2013-09-10 04:01:00,48.8,47.2,29.77,ENE,69,0.0,0.0,94,0.00,,BKN001,0.00,VWS V14.00,2013-09-10 10:01:00,
2013-09-10 04:06:00,48.7,47.0,29.77,WNW,291,1.0,2.0,94,0.00,,BKN001,0.00,VWS V14.00,2013-09-10 10:06:00,
2013-09-10 04:11:00,48.6,47.0,29.77,WNW,291,1.0,2.0,94,0.00,,BKN001,0.00,VWS V14.00,2013-09-10 10:11:00,
2013-09-10 04:16:00,48.5,46.9,29.78,WNW,289,1.0,2.0,94,0.00,,BKN001,0.00,VWS V14.00,2013-09-10 10:16:00,
2013-09-10 04:21:00,48.5,46.9,29.78,South,184,2.0,2.0,94,0.00,,BKN001,0.00,VWS V14.00,2013-09-10 10:21:00,
2013-09-10 04:26:00,48.4,46.8,29.78,SSE,165,2.0,3.0,94,0.00,,BKN001,0.00,VWS V14.00,2013-09-10 10:26:00,
2013-09-10 04:31:00,48.2,46.6,29.78,SSE,151,2.0,2.0,94,0.00,,BKN001,0.00,VWS V14.00,2013-09-10 10:31:00,
2013-09-10 04:36:00,48.2,46.8,29.78,East,82,3.0,3.0,95,0.00,,BKN001,0.00,VWS V14.00,2013-09-10 10:36:00,
2013-09-10 04:41:00,48.0,46.6,29.78,East,82,2.0,3.0,95,0.00,,BKN001,0.00,VWS V14.00,2013-09-10 10:41:00,
2013-09-10 04:46:00,47.8,46.2,29.78,East,82,0.0,3.0,94,0.00,,BKN001,0.00,VWS V14.00,2013-09-10 10:46:00,
2013-09-10 04:51:00,47.7,46.3,29.77,WSW,254,0.0,3.0,95,0.00,,BKN001,0.00,VWS V14.00,2013-09-10 10:51:00,
2013-09-10 04:56:00,47.6,46.2,29.78,SE,145,0.0,3.0,95,0.00,,BKN001,0.00,VWS V14.00,2013-09-10 10:56:00,
2013-09-10 05:01:00,47.5,46.1,29.77,ESE,108,2.0,3.0,95,0.00,,BKN001,0.00,VWS V14.00,2013-09-10 11:01:00,
2013-09-10 05:06:00,46.9,45.3,29.78,SE,145,2.0,3.0,94,0.01,,BKN001,0.01,VWS V14.00,2013-09-10 11:06:00,
2013-09-10 05:11:00,46.7,45.3,29.78,SE,142,1.0,3.0,95,0.01,,BKN001,0.01,VWS V14.00,2013-09-10 11:11:00,
2013-09-10 05:16:00,46.6,45.2,29.77,ESE,122,1.0,3.0,95,0.01,,BKN001,0.01,VWS V14.00,2013-09-10 11:16:00,
2013-09-10 05:21:00,46.5,45.2,29.77,ESE,102,2.0,3.0,95,0.01,,BKN001,0.01,VWS V14.00,2013-09-10 11:21:00,
2013-09-10 05:26:00,46.2,44.8,29.78,SE,125,1.0,3.0,95,0.01,,BKN001,0.01,VWS V14.00,2013-09-10 11:26:00,
2013-09-10 05:31:00,46.1,44.8,29.78,SSE,166,0.0,1.0,95,0.01,,BKN001,0.01,VWS V14.00,2013-09-10 11:31:00,
2013-09-10 05:36:00,45.9,44.5,29.78,SSE,165,0.0,1.0,95,0.01,,BKN001,0.01,VWS V14.00,2013-09-10 11:36:00,
2013-09-10 05:41:00,45.8,44.7,29.78,East,84,3.0,3.0,96,0.01,,BKN001,0.01,VWS V14.00,2013-09-10 11:41:00,
2013-09-10 05:46:00,45.6,44.2,29.78,ENE,69,2.0,4.0,95,0.01,,BKN001,0.01,VWS V14.00,2013-09-10 11:46:00,
2013-09-10 05:51:00,45.4,44.0,29.78,East,79,0.0,4.0,95,0.01,,BKN001,0.01,VWS V14.00,2013-09-10 11:51:00,
2013-09-10 05:56:00,45.2,43.9,29.78,NW,304,0.0,4.0,95,0.01,,BKN001,0.01,VWS V14.00,2013-09-10 11:56:00,
2013-09-10 06:01:00,45.1,43.8,29.78,NE,38,0.0,1.0,95,0.00,,BKN001,0.01,VWS V14.00,2013-09-10 12:01:00,
2013-09-10 06:06:00,45.0,43.7,29.78,NE,38,0.0,1.0,95,0.00,,BKN001,0.01,VWS V14.00,2013-09-10 12:06:00,
2013-09-10 06:11:00,44.9,43.6,29.79,NE,38,0.0,1.0,95,0.00,,BKN001,0.01,VWS V14.00,2013-09-10 12:11:00,
2013-09-10 06:16:00,44.9,43.8,29.79,ENE,58,4.0,5.0,96,0.00,,BKN001,0.01,VWS V14.00,2013-09-10 12:16:00,
2013-09-10 06:21:00,45.0,43.9,29.79,NE,44,0.0,5.0,96,0.00,,BKN001,0.01,VWS V14.00,2013-09-10 12:21:00,
2013-09-10 06:26:00,44.9,43.8,29.79,North,352,6.0,6.0,96,0.00,,BKN001,0.01,VWS V14.00,2013-09-10 12:26:00,
2013-09-10 06:31:00,45.1,44.0,29.79,North,1,5.0,6.0,96,0.00,,BKN001,0.01,VWS V14.00,2013-09-10 12:31:00,
2013-09-10 06:36:00,45.3,44.2,29.80,NE,43,0.0,6.0,96,0.00,,BKN001,0.01,VWS V14.00,2013-09-10 12:36:00,
2013-09-10 06:41:00,45.4,44.3,29.80,NE,43,0.0,6.0,96,0.00,,BKN001,0.01,VWS V14.00,2013-09-10 12:41:00,
2013-09-10 06:46:00,45.5,44.4,29.80,NE,48,2.0,6.0,96,0.00,,BKN001,0.01,VWS V14.00,2013-09-10 12:46:00,
2013-09-10 06:51:00,45.5,44.4,29.79,NE,46,1.0,6.0,96,0.00,,BKN001,0.01,VWS V14.00,2013-09-10 12:51:00,
2013-09-10 06:56:00,45.9,45.1,29.79,NE,49,0.0,6.0,97,0.00,,BKN001,0.01,VWS V14.00,2013-09-10 12:56:00,
2013-09-10 07:01:00,46.0,45.2,29.80,NNW,345,6.0,7.0,97,0.00,,BKN001,0.01,VWS V14.00,2013-09-10 13:01:00,
2013-09-10 07:06:00,46.1,45.3,29.80,NNE,23,1.0,7.0,97,0.00,,BKN001,0.01,VWS V14.00,2013-09-10 13:06:00,
2013-09-10 07:11:00,46.2,45.4,29.81,NE,40,1.0,7.0,97,0.00,,BKN001,0.01,VWS V14.00,2013-09-10 13:11:00,
2013-09-10 07:16:00,46.4,45.6,29.81,North,9,2.0,7.0,97,0.00,,BKN001,0.01,VWS V14.00,2013-09-10 13:16:00,
2013-09-10 07:21:00,46.5,45.7,29.81,NNE,30,3.0,7.0,97,0.00,,BKN001,0.01,VWS V14.00,2013-09-10 13:21:00,
2013-09-10 07:26:00,46.6,45.8,29.81,NNW,338,4.0,7.0,97,0.00,,BKN001,0.01,VWS V14.00,2013-09-10 13:26:00,
2013-09-10 07:31:00,46.9,46.1,29.81,NNW,330,6.0,8.0,97,0.00,,BKN001,0.01,VWS V14.00,2013-09-10 13:31:00,
2013-09-10 07:36:00,47.2,46.4,29.81,NE,39,0.0,8.0,97,0.00,,BKN001,0.01,VWS V14.00,2013-09-10 13:36:00,
2013-09-10 07:41:00,47.3,46.5,29.81,NE,46,5.0,8.0,97,0.00,,BKN001,0.01,VWS V14.00,2013-09-10 13:41:00,
2013-09-10 07:46:00,47.1,46.3,29.81,NE,46,7.0,9.0,97,0.00,,BKN001,0.01,VWS V14.00,2013-09-10 13:46:00,
2013-09-10 07:51:00,47.1,46.3,29.81,NE,43,1.0,10.0,97,0.00,,BKN001,0.01,VWS V14.00,2013-09-10 13:51:00,
2013-09-10 07:56:00,47.3,46.5,29.81,NNW,330,5.0,10.0,97,0.00,,BKN001,0.01,VWS V14.00,2013-09-10 13:56:00,
2013-09-10 08:01:00,47.3,46.5,29.82,NW,319,4.0,5.0,97,0.00,,BKN001,0.01,VWS V14.00,2013-09-10 14:01:00,
2013-09-10 08:06:00,47.3,46.2,29.82,NW,319,4.0,7.0,96,0.00,,BKN001,0.01,VWS V14.00,2013-09-10 14:06:00,
2013-09-10 08:11:00,47.4,46.3,29.82,NNW,333,0.0,7.0,96,0.00,,BKN001,0.01,VWS V14.00,2013-09-10 14:11:00,
2013-09-10 08:16:00,47.5,46.4,29.81,ENE,57,2.0,7.0,96,0.00,,BKN001,0.01,VWS V14.00,2013-09-10 14:16:00,
2013-09-10 08:21:00,47.7,46.6,29.82,ENE,70,3.0,7.0,96,0.00,,BKN001,0.01,VWS V14.00,2013-09-10 14:21:00,
2013-09-10 08:26:00,47.6,46.5,29.82,ENE,61,1.0,7.0,96,0.00,,BKN001,0.01,VWS V14.00,2013-09-10 14:26:00,
2013-09-10 08:31:00,47.9,46.8,29.82,ENE,61,0.0,1.0,96,0.00,,BKN001,0.01,VWS V14.00,2013-09-10 14:31:00,
2013-09-10 08:36:00,48.1,47.0,29.82,ENE,58,0.0,1.0,96,0.00,,BKN001,0.01,VWS V14.00,2013-09-10 14:36:00,
2013-09-10 08:41:00,48.2,47.1,29.81,NE,35,0.0,2.0,96,0.00,,BKN001,0.01,VWS V14.00,2013-09-10 14:41:00,
2013-09-10 08:46:00,48.6,47.5,29.81,NE,35,2.0,4.0,96,0.00,,BKN001,0.01,VWS V14.00,2013-09-10 14:46:00,
2013-09-10 08:51:00,49.2,48.1,29.81,North,8,1.0,5.0,96,0.00,,BKN001,0.01,VWS V14.00,2013-09-10 14:51:00,
2013-09-10 08:56:00,49.9,48.5,29.81,North,356,0.0,5.0,95,0.00,,BKN001,0.01,VWS V14.00,2013-09-10 14:56:00,
2013-09-10 09:01:00,50.0,48.3,29.81,North,360,0.0,1.0,94,0.00,,BKN001,0.01,VWS V14.00,2013-09-10 15:01:00,
2013-09-10 09:06:00,50.3,48.4,29.81,South,172,3.0,3.0,93,0.00,,BKN001,0.01,VWS V14.00,2013-09-10 15:06:00,
2013-09-10 09:11:00,50.4,48.2,29.81,SSW,192,4.0,5.0,92,0.00,,BKN001,0.01,VWS V14.00,2013-09-10 15:11:00,
2013-09-10 09:16:00,50.4,47.9,29.82,SW,226,6.0,6.0,91,0.00,,BKN001,0.01,VWS V14.00,2013-09-10 15:16:00,
2013-09-10 09:21:00,50.4,48.2,29.82,SSW,204,5.0,7.0,92,0.00,,BKN001,0.01,VWS V14.00,2013-09-10 15:21:00,
2013-09-10 09:26:00,50.3,48.1,29.82,WSW,253,5.0,7.0,92,0.02,,BKN001,0.03,VWS V14.00,2013-09-10 15:26:00,
2013-09-10 09:31:00,50.2,48.3,29.82,West,270,2.0,3.0,93,0.03,,BKN001,0.04,VWS V14.00,2013-09-10 15:31:00,
2013-09-10 09:36:00,50.2,48.5,29.82,WNW,294,2.0,3.0,94,0.04,,BKN001,0.05,VWS V14.00,2013-09-10 15:36:00,
2013-09-10 09:41:00,50.4,48.7,29.82,WNW,299,0.0,3.0,94,0.04,,BKN001,0.05,VWS V14.00,2013-09-10 15:41:00,
2013-09-10 09:46:00,50.7,49.0,29.82,WNW,299,0.0,3.0,94,0.04,,BKN001,0.05,VWS V14.00,2013-09-10 15:46:00,
2013-09-10 09:51:00,50.7,48.8,29.82,NE,39,1.0,3.0,93,0.04,,BKN001,0.05,VWS V14.00,2013-09-10 15:51:00,
2013-09-10 09:56:00,50.9,49.0,29.81,NNW,341,0.0,3.0,93,0.04,,BKN001,0.05,VWS V14.00,2013-09-10 15:56:00,
2013-09-10 10:01:00,51.2,49.2,29.81,SSE,148,1.0,1.0,93,0.04,,BKN001,0.05,VWS V14.00,2013-09-10 16:01:00,
2013-09-10 10:06:00,51.4,49.2,29.81,ESE,120,2.0,3.0,92,0.04,,BKN001,0.05,VWS V14.00,2013-09-10 16:06:00,
2013-09-10 10:11:00,51.5,49.3,29.82,SSE,153,1.0,3.0,92,0.05,,BKN001,0.06,VWS V14.00,2013-09-10 16:11:00,
2013-09-10 10:16:00,51.5,49.0,29.82,South,170,3.0,4.0,91,0.05,,BKN001,0.06,VWS V14.00,2013-09-10 16:16:00,
2013-09-10 10:21:00,51.7,49.2,29.82,SSW,198,3.0,4.0,91,0.06,,BKN001,0.07,VWS V14.00,2013-09-10 16:21:00,
2013-09-10 10:26:00,51.7,49.2,29.82,SW,226,2.0,4.0,91,0.06,,BKN001,0.07,VWS V14.00,2013-09-10 16:26:00,
2013-09-10 10:31:00,51.6,49.1,29.82,SSW,200,5.0,5.0,91,0.04,,BKN001,0.08,VWS V14.00,2013-09-10 16:31:00,
2013-09-10 10:36:00,51.6,49.4,29.82,SSE,163,5.0,5.0,92,0.04,,BKN001,0.08,VWS V14.00,2013-09-10 16:36:00,
2013-09-10 10:41:00,51.6,49.4,29.82,SSE,162,2.0,5.0,92,0.04,,BKN001,0.08,VWS V14.00,2013-09-10 16:41:00,
2013-09-10 10:46:00,51.9,49.9,29.82,South,169,1.0,5.0,93,0.04,,BKN001,0.08,VWS V14.00,2013-09-10 16:46:00,
2013-09-10 10:51:00,52.0,49.8,29.82,South,175,2.0,5.0,92,0.04,,BKN001,0.08,VWS V14.00,2013-09-10 16:51:00,
2013-09-10 10:56:00,52.2,49.7,29.82,SSW,195,1.0,5.0,91,0.04,,BKN001,0.08,VWS V14.00,2013-09-10 16:56:00,
2013-09-10 11:01:00,52.5,49.7,29.82,WSW,253,2.0,2.0,90,0.03,,BKN001,0.08,VWS V14.00,2013-09-10 17:01:00,
2013-09-10 11:06:00,52.5,49.7,29.82,West,271,1.0,4.0,90,0.04,,BKN001,0.09,VWS V14.00,2013-09-10 17:06:00,
2013-09-10 11:10:00,52.5,50.0,29.81,WSW,257,0.0,4.0,91,0.04,,BKN001,0.09,VWS V14.00,2013-09-10 17:10:00,
2013-09-10 11:15:00,52.9,50.3,29.81,NE,49,2.0,4.0,91,0.04,,BKN001,0.09,VWS V14.00,2013-09-10 17:15:00,
2013-09-10 11:20:00,53.0,50.2,29.81,East,85,1.0,4.0,90,0.04,,BKN001,0.09,VWS V14.00,2013-09-10 17:20:00,
2013-09-10 11:25:00,53.2,49.4,29.81,East,91,1.0,4.0,87,0.04,,BKN001,0.09,VWS V14.00,2013-09-10 17:25:00,
2013-09-10 11:30:00,53.6,50.1,29.81,ESE,117,0.0,1.0,88,0.02,,BKN001,0.09,VWS V14.00,2013-09-10 17:30:00,
2013-09-10 11:35:00,53.9,49.8,29.81,SE,125,1.0,2.0,86,0.02,,BKN001,0.09,VWS V14.00,2013-09-10 17:35:00,
2013-09-10 11:40:00,54.2,49.2,29.81,East,97,1.0,2.0,83,0.02,,BKN001,0.09,VWS V14.00,2013-09-10 17:40:00,
2013-09-10 11:46:00,54.3,49.3,29.81,ESE,106,1.0,3.0,83,0.02,,BKN001,0.09,VWS V14.00,2013-09-10 17:46:00,
2013-09-10 11:51:00,54.4,49.7,29.81,SW,224,2.0,4.0,84,0.02,,BKN001,0.09,VWS V14.00,2013-09-10 17:51:00,
2013-09-10 11:56:00,54.3,49.3,29.81,SSW,212,2.0,4.0,83,0.02,,BKN001,0.09,VWS V14.00,2013-09-10 17:56:00,
2013-09-10 12:01:00,54.2,50.1,29.81,SSW,194,4.0,4.0,86,0.01,,BKN001,0.09,VWS V14.00,2013-09-10 18:01:00,
2013-09-10 12:06:00,54.1,49.7,29.81,SSW,198,4.0,4.0,85,0.01,,BKN001,0.09,VWS V14.00,2013-09-10 18:06:00,
2013-09-10 12:11:00,54.0,49.6,29.81,SW,219,3.0,4.0,85,0.02,,BKN001,0.10,VWS V14.00,2013-09-10 18:11:00,
2013-09-10 12:16:00,53.9,50.1,29.81,South,181,4.0,5.0,87,0.02,,BKN001,0.10,VWS V14.00,2013-09-10 18:16:00,
2013-09-10 12:21:00,53.9,50.1,29.82,South,184,3.0,6.0,87,0.02,,BKN001,0.10,VWS V14.00,2013-09-10 18:21:00,
2013-09-10 12:26:00,53.9,50.1,29.82,SSE,163,3.0,6.0,87,0.02,,BKN001,0.10,VWS V14.00,2013-09-10 18:26:00,
2013-09-10 12:31:00,53.7,49.6,29.81,SE,130,3.0,4.0,86,0.02,,BKN001,0.11,VWS V14.00,2013-09-10 18:31:00,
2013-09-10 12:36:00,53.5,49.4,29.81,SE,128,3.0,5.0,86,0.02,,BKN001,0.11,VWS V14.00,2013-09-10 18:36:00,
2013-09-10 12:41:00,53.4,49.3,29.81,SE,132,3.0,5.0,86,0.03,,BKN001,0.12,VWS V14.00,2013-09-10 18:41:00,
2013-09-10 12:46:00,53.6,50.1,29.81,SSE,156,3.0,5.0,88,0.03,,BKN001,0.12,VWS V14.00,2013-09-10 18:46:00,
2013-09-10 12:51:00,53.6,49.2,29.81,SSE,159,2.0,5.0,85,0.03,,BKN001,0.12,VWS V14.00,2013-09-10 18:51:00,
2013-09-10 12:56:00,53.8,49.4,29.81,SE,132,3.0,5.0,85,0.03,,BKN001,0.12,VWS V14.00,2013-09-10 18:56:00,
2013-09-10 13:01:00,53.9,49.2,29.81,SE,139,2.0,4.0,84,0.03,,BKN001,0.12,VWS V14.00,2013-09-10 19:01:00,
2013-09-10 13:06:00,54.2,49.2,29.81,SE,142,3.0,4.0,83,0.03,,BKN001,0.12,VWS V14.00,2013-09-10 19:06:00,
2013-09-10 13:11:00,54.4,49.0,29.81,SSE,158,1.0,4.0,82,0.04,,BKN001,0.13,VWS V14.00,2013-09-10 19:11:00,
2013-09-10 13:16:00,54.6,49.5,29.81,SSE,148,0.0,4.0,83,0.04,,BKN001,0.13,VWS V14.00,2013-09-10 19:16:00,
2013-09-10 13:21:00,54.7,49.3,29.81,SSW,198,0.0,4.0,82,0.04,,BKN001,0.13,VWS V14.00,2013-09-10 19:21:00,
2013-09-10 13:26:00,54.9,49.2,29.81,WSW,253,1.0,4.0,81,0.04,,BKN001,0.13,VWS V14.00,2013-09-10 19:26:00,
2013-09-10 13:31:00,54.9,49.8,29.81,WNW,293,2.0,3.0,83,0.02,,BKN001,0.13,VWS V14.00,2013-09-10 19:31:00,
2013-09-10 13:36:00,55.0,49.9,29.81,WNW,289,1.0,3.0,83,0.02,,BKN001,0.13,VWS V14.00,2013-09-10 19:36:00,
2013-09-10 13:41:00,55.1,49.4,29.81,WSW,240,1.0,3.0,81,0.02,,BKN001,0.13,VWS V14.00,2013-09-10 19:41:00,
2013-09-10 13:46:00,55.2,49.2,29.81,WNW,302,2.0,3.0,80,0.02,,BKN001,0.13,VWS V14.00,2013-09-10 19:46:00,
2013-09-10 13:50:00,55.3,49.6,29.80,WNW,293,0.0,3.0,81,0.02,,BKN001,0.13,VWS V14.00,2013-09-10 19:50:00,
2013-09-10 13:55:00,55.7,50.6,29.80,WNW,294,0.0,3.0,83,0.02,,BKN001,0.13,VWS V14.00,2013-09-10 19:55:00,
2013-09-10 14:00:00,56.3,49.9,29.80,SE,128,0.0,0.0,79,0.01,,BKN001,0.13,VWS V14.00,2013-09-10 20:00:00,
2013-09-10 14:05:00,56.3,49.2,29.80,East,82,2.0,4.0,77,0.01,,BKN001,0.13,VWS V14.00,2013-09-10 20:05:00,
2013-09-10 14:10:00,56.1,49.0,29.80,SSE,155,2.0,4.0,77,0.01,,BKN001,0.13,VWS V14.00,2013-09-10 20:10:00,
2013-09-10 14:15:00,56.1,49.7,29.81,SSE,166,3.0,4.0,79,0.01,,BKN001,0.13,VWS V14.00,2013-09-10 20:15:00,
2013-09-10 14:20:00,56.1,49.7,29.80,SW,215,1.0,4.0,79,0.01,,BKN001,0.13,VWS V14.00,2013-09-10 20:20:00,
2013-09-10 14:25:00,56.2,49.4,29.80,SSW,209,0.0,4.0,78,0.01,,BKN001,0.13,VWS V14.00,2013-09-10 20:25:00,
2013-09-10 14:30:00,56.0,49.2,29.81,WSW,246,2.0,2.0,78,0.00,,BKN001,0.13,VWS V14.00,2013-09-10 20:30:00,
2013-09-10 14:35:00,55.8,49.7,29.81,WSW,245,0.0,2.0,80,0.00,,BKN001,0.13,VWS V14.00,2013-09-10 20:35:00,
2013-09-10 14:40:00,55.7,50.6,29.81,NNE,33,0.0,5.0,83,0.00,,BKN001,0.13,VWS V14.00,2013-09-10 20:40:00,
2013-09-10 14:45:00,55.5,50.8,29.81,NE,44,0.0,5.0,84,0.00,,BKN001,0.13,VWS V14.00,2013-09-10 20:45:00,
2013-09-10 14:50:00,55.2,50.5,29.81,NNE,12,3.0,7.0,84,0.00,,BKN001,0.13,VWS V14.00,2013-09-10 20:50:00,
2013-09-10 14:55:00,54.8,50.4,29.81,NNE,18,1.0,7.0,85,0.00,,BKN001,0.13,VWS V14.00,2013-09-10 20:55:00,
2013-09-10 15:00:00,54.6,50.2,29.82,NE,44,1.0,2.0,85,0.00,,BKN001,0.13,VWS V14.00,2013-09-10 21:00:00,
2013-09-10 15:06:00,54.4,50.3,29.82,NE,46,0.0,2.0,86,0.00,,BKN001,0.13,VWS V14.00,2013-09-10 21:06:00,
2013-09-10 15:11:00,54.1,50.0,29.83,East,82,0.0,2.0,86,0.02,,BKN001,0.15,VWS V14.00,2013-09-10 21:11:00,
2013-09-10 15:16:00,54.0,50.2,29.83,SSW,210,1.0,4.0,87,0.03,,BKN001,0.16,VWS V14.00,2013-09-10 21:16:00,
2013-09-10 15:21:00,53.9,50.7,29.83,SW,215,3.0,5.0,89,0.05,,BKN001,0.18,VWS V14.00,2013-09-10 21:21:00,
2013-09-10 15:26:00,53.4,49.9,29.83,SSW,201,8.0,9.0,88,0.08,,BKN001,0.21,VWS V14.00,2013-09-10 21:26:00,
2013-09-10 15:31:00,52.9,48.5,29.84,South,191,7.0,11.0,85,0.10,,BKN001,0.23,VWS V14.00,2013-09-10 21:31:00,
2013-09-10 15:36:00,52.5,47.8,29.84,SW,232,5.0,11.0,84,0.10,,BKN001,0.23,VWS V14.00,2013-09-10 21:36:00,
2013-09-10 15:41:00,51.9,47.2,29.84,SSW,207,4.0,11.0,84,0.11,,BKN001,0.24,VWS V14.00,2013-09-10 21:41:00,
2013-09-10 15:46:00,51.4,48.0,29.83,South,191,3.0,11.0,88,0.12,,BKN001,0.25,VWS V14.00,2013-09-10 21:46:00,
2013-09-10 15:51:00,51.1,48.3,29.84,SSE,153,3.0,11.0,90,0.12,,BKN001,0.25,VWS V14.00,2013-09-10 21:51:00,
2013-09-10 15:55:00,50.8,48.0,29.83,South,170,1.0,11.0,90,0.12,,BKN001,0.25,VWS V14.00,2013-09-10 21:55:00,
2013-09-10 16:00:00,50.8,47.7,29.83,SW,227,1.0,3.0,89,0.12,,BKN001,0.25,VWS V14.00,2013-09-10 22:00:00,
2013-09-10 16:05:00,51.0,47.6,29.83,SW,217,1.0,3.0,88,0.12,,BKN001,0.25,VWS V14.00,2013-09-10 22:05:00,
2013-09-10 16:10:00,51.0,47.9,29.84,SW,215,0.0,3.0,89,0.12,,BKN001,0.25,VWS V14.00,2013-09-10 22:10:00,
2013-09-10 16:15:00,51.0,47.9,29.84,SW,215,0.0,3.0,89,0.13,,BKN001,0.26,VWS V14.00,2013-09-10 22:15:00,
2013-09-10 16:20:00,51.0,47.9,29.84,West,281,0.0,3.0,89,0.13,,BKN001,0.26,VWS V14.00,2013-09-10 22:20:00,
2013-09-10 16:25:00,51.2,48.1,29.84,West,281,0.0,3.0,89,0.13,,BKN001,0.26,VWS V14.00,2013-09-10 22:25:00,
2013-09-10 16:30:00,51.3,48.2,29.85,West,280,0.0,0.0,89,0.04,,BKN001,0.26,VWS V14.00,2013-09-10 22:30:00,
2013-09-10 16:35:00,51.2,47.8,29.85,West,280,0.0,0.0,88,0.04,,BKN001,0.26,VWS V14.00,2013-09-10 22:35:00,
2013-09-10 16:40:00,51.3,47.9,29.85,West,280,0.0,0.0,88,0.04,,BKN001,0.26,VWS V14.00,2013-09-10 22:40:00,
2013-09-10 16:45:00,51.2,47.5,29.86,West,266,0.0,0.0,87,0.05,,BKN001,0.27,VWS V14.00,2013-09-10 22:45:00,
2013-09-10 16:50:00,51.2,47.5,29.86,West,259,0.0,0.0,87,0.05,,BKN001,0.27,VWS V14.00,2013-09-10 22:50:00,
2013-09-10 16:55:00,51.2,47.8,29.86,West,260,0.0,0.0,88,0.06,,BKN001,0.28,VWS V14.00,2013-09-10 22:55:00,
2013-09-10 17:00:00,51.0,47.3,29.86,WSW,256,0.0,0.0,87,0.04,,BKN001,0.29,VWS V14.00,2013-09-10 23:00:00,
2013-09-10 17:05:00,50.6,47.8,29.86,WSW,255,0.0,0.0,90,0.05,,BKN001,0.30,VWS V14.00,2013-09-10 23:05:00,
2013-09-10 17:10:00,50.3,48.4,29.86,WSW,256,0.0,0.0,93,0.06,,BKN001,0.31,VWS V14.00,2013-09-10 23:10:00,
2013-09-10 17:15:00,49.9,48.0,29.86,ENE,58,0.0,0.0,93,0.07,,BKN001,0.32,VWS V14.00,2013-09-10 23:15:00,
2013-09-10 17:20:00,49.8,48.2,29.86,ENE,63,3.0,3.0,94,0.08,,BKN001,0.33,VWS V14.00,2013-09-10 23:20:00,
2013-09-10 17:25:00,49.8,48.4,29.86,ENE,69,2.0,4.0,95,0.09,,BKN001,0.34,VWS V14.00,2013-09-10 23:25:00,
2013-09-10 17:30:00,49.8,48.4,29.86,ENE,71,3.0,3.0,95,0.09,,BKN001,0.35,VWS V14.00,2013-09-10 23:30:00,
2013-09-10 17:35:00,49.7,48.3,29.86,ENE,64,2.0,3.0,95,0.10,,BKN001,0.36,VWS V14.00,2013-09-10 23:35:00,
2013-09-10 17:40:00,49.7,48.3,29.87,NNW,347,1.0,3.0,95,0.11,,BKN001,0.37,VWS V14.00,2013-09-10 23:40:00,
2013-09-10 17:45:00,49.8,48.7,29.87,NNW,343,2.0,3.0,96,0.11,,BKN001,0.37,VWS V14.00,2013-09-10 23:45:00,
2013-09-10 17:50:00,49.9,48.8,29.87,North,349,3.0,3.0,96,0.11,,BKN001,0.37,VWS V14.00,2013-09-10 23:50:00,
2013-09-10 17:55:00,49.9,48.8,29.86,NNE,20,2.0,6.0,96,0.11,,BKN001,0.37,VWS V14.00,2013-09-10 23:55:00,
2013-09-10 18:00:00,49.8,48.7,29.86,NE,36,0.0,3.0,96,0.09,,BKN001,0.37,VWS V14.00,2013-09-11 00:00:00,
2013-09-10 18:05:00,49.9,48.8,29.86,North,356,2.0,5.0,96,0.09,,BKN001,0.37,VWS V14.00,2013-09-11 00:05:00,
2013-09-10 18:10:00,49.9,48.8,29.86,NNW,348,4.0,5.0,96,0.09,,BKN001,0.37,VWS V14.00,2013-09-11 00:10:00,
2013-09-10 18:15:00,49.9,48.8,29.87,NE,38,0.0,5.0,96,0.09,,BKN001,0.37,VWS V14.00,2013-09-11 00:15:00,
2013-09-10 18:20:00,50.0,48.9,29.87,NNW,338,3.0,5.0,96,0.09,,BKN001,0.37,VWS V14.00,2013-09-11 00:20:00,
2013-09-10 18:25:00,50.0,48.9,29.86,North,8,3.0,5.0,96,0.09,,BKN001,0.37,VWS V14.00,2013-09-11 00:25:00,
2013-09-10 18:30:00,50.1,49.0,29.86,NE,41,0.0,2.0,96,0.02,,BKN001,0.37,VWS V14.00,2013-09-11 00:30:00,
2013-09-10 18:35:00,50.1,49.0,29.86,NE,39,0.0,2.0,96,0.02,,BKN001,0.37,VWS V14.00,2013-09-11 00:35:00,
2013-09-10 18:40:00,49.9,48.8,29.86,NE,41,0.0,2.0,96,0.02,,BKN001,0.37,VWS V14.00,2013-09-11 00:40:00,
2013-09-10 18:45:00,50.0,48.9,29.87,NE,44,3.0,3.0,96,0.02,,BKN001,0.37,VWS V14.00,2013-09-11 00:45:00,
2013-09-10 18:50:00,49.9,48.8,29.87,NE,43,1.0,4.0,96,0.02,,BKN001,0.37,VWS V14.00,2013-09-11 00:50:00,
2013-09-10 18:55:00,49.8,48.7,29.87,NE,39,1.0,4.0,96,0.02,,BKN001,0.37,VWS V14.00,2013-09-11 00:55:00,
2013-09-10 19:00:00,49.9,49.1,29.87,NE,43,0.0,1.0,97,0.00,,BKN001,0.37,VWS V14.00,2013-09-11 01:00:00,
2013-09-10 19:05:00,49.9,49.1,29.87,NNE,24,0.0,1.0,97,0.00,,BKN001,0.37,VWS V14.00,2013-09-11 01:05:00,
2013-09-10 19:10:00,49.9,49.1,29.87,NNE,25,0.0,1.0,97,0.00,,BKN001,0.37,VWS V14.00,2013-09-11 01:10:00,
2013-09-10 19:15:00,49.9,49.1,29.88,NNE,25,0.0,1.0,97,0.00,,BKN001,0.37,VWS V14.00,2013-09-11 01:15:00,
2013-09-10 19:20:00,49.9,49.1,29.88,NNE,25,0.0,1.0,97,0.00,,BKN001,0.37,VWS V14.00,2013-09-11 01:20:00,
2013-09-10 19:25:00,49.8,49.0,29.88,NNE,25,0.0,1.0,97,0.00,,BKN001,0.37,VWS V14.00,2013-09-11 01:25:00,
2013-09-10 19:30:00,49.7,48.9,29.88,NNE,24,0.0,0.0,97,0.00,,BKN001,0.37,VWS V14.00,2013-09-11 01:30:00,
2013-09-10 19:35:00,49.5,48.7,29.88,ENE,64,2.0,3.0,97,0.00,,BKN001,0.37,VWS V14.00,2013-09-11 01:35:00,
2013-09-10 19:40:00,49.3,48.5,29.88,East,79,2.0,3.0,97,0.00,,BKN001,0.37,VWS V14.00,2013-09-11 01:40:00,
2013-09-10 19:45:00,49.4,48.6,29.88,East,79,1.0,3.0,97,0.00,,BKN001,0.37,VWS V14.00,2013-09-11 01:45:00,
2013-09-10 19:50:00,49.4,48.6,29.88,East,98,2.0,3.0,97,0.00,,BKN001,0.37,VWS V14.00,2013-09-11 01:50:00,
2013-09-10 19:55:00,49.3,48.5,29.88,East,89,2.0,3.0,97,0.00,,BKN001,0.37,VWS V14.00,2013-09-11 01:55:00,
2013-09-10 20:00:00,49.2,48.4,29.88,ENE,64,3.0,3.0,97,0.00,,BKN001,0.37,VWS V14.00,2013-09-11 02:00:00,
2013-09-10 20:05:00,49.2,48.4,29.89,NE,50,0.0,3.0,97,0.01,,BKN001,0.38,VWS V14.00,2013-09-11 02:05:00,
2013-09-10 20:10:00,49.3,48.5,29.88,NE,39,1.0,3.0,97,0.01,,BKN001,0.38,VWS V14.00,2013-09-11 02:10:00,
2013-09-10 20:15:00,49.3,48.5,29.88,NE,39,1.0,3.0,97,0.01,,BKN001,0.38,VWS V14.00,2013-09-11 02:15:00,
2013-09-10 20:20:00,49.3,48.5,29.88,NE,35,0.0,3.0,97,0.01,,BKN001,0.38,VWS V14.00,2013-09-11 02:20:00,
2013-09-10 20:25:00,49.3,48.5,29.88,NE,35,1.0,4.0,97,0.01,,BKN001,0.38,VWS V14.00,2013-09-11 02:25:00,
2013-09-10 20:30:00,49.5,48.7,29.90,NE,53,5.0,6.0,97,0.01,,BKN001,0.38,VWS V14.00,2013-09-11 02:30:00,
2013-09-10 20:35:00,49.5,48.7,29.89,NE,42,0.0,6.0,97,0.01,,BKN001,0.38,VWS V14.00,2013-09-11 02:35:00,
2013-09-10 20:40:00,49.7,48.9,29.89,NE,41,0.0,6.0,97,0.01,,BKN001,0.38,VWS V14.00,2013-09-11 02:40:00,
2013-09-10 20:45:00,49.7,48.9,29.89,NNE,30,2.0,8.0,97,0.02,,BKN001,0.39,VWS V14.00,2013-09-11 02:45:00,
2013-09-10 20:50:00,49.7,48.9,29.90,NE,39,2.0,8.0,97,0.02,,BKN001,0.39,VWS V14.00,2013-09-11 02:50:00,
2013-09-10 20:55:00,49.7,48.9,29.90,NE,49,0.0,8.0,97,0.02,,BKN001,0.39,VWS V14.00,2013-09-11 02:55:00,
2013-09-10 21:00:00,49.7,48.9,29.90,NE,52,6.0,8.0,97,0.02,,BKN001,0.39,VWS V14.00,2013-09-11 03:00:00,
2013-09-10 21:05:00,49.6,48.8,29.90,NE,53,4.0,8.0,97,0.02,,BKN001,0.39,VWS V14.00,2013-09-11 03:05:00,
2013-09-10 21:10:00,49.5,48.7,29.91,NE,54,6.0,11.0,97,0.02,,BKN001,0.39,VWS V14.00,2013-09-11 03:10:00,
2013-09-10 21:15:00,49.5,48.7,29.91,NE,42,2.0,11.0,97,0.02,,BKN001,0.39,VWS V14.00,2013-09-11 03:15:00,
2013-09-10 21:20:00,49.5,48.7,29.91,ENE,58,4.0,11.0,97,0.02,,BKN001,0.39,VWS V14.00,2013-09-11 03:20:00,
2013-09-10 21:25:00,49.5,48.7,29.92,NE,55,7.0,11.0,97,0.02,,BKN001,0.39,VWS V14.00,2013-09-11 03:25:00,
2013-09-10 21:30:00,49.6,48.8,29.92,NE,47,4.0,4.0,97,0.01,,BKN001,0.39,VWS V14.00,2013-09-11 03:30:00,
2013-09-10 21:35:00,49.6,48.8,29.92,NE,41,1.0,5.0,97,0.01,,BKN001,0.39,VWS V14.00,2013-09-11 03:35:00,
2013-09-10 21:40:00,49.6,48.8,29.91,NE,42,0.0,5.0,97,0.01,,BKN001,0.39,VWS V14.00,2013-09-11 03:40:00,
2013-09-10 21:45:00,49.7,48.9,29.91,NE,46,3.0,6.0,97,0.01,,BKN001,0.39,VWS V14.00,2013-09-11 03:45:00,
2013-09-10 21:50:00,49.7,48.9,29.91,NE,51,2.0,6.0,97,0.01,,BKN001,0.39,VWS V14.00,2013-09-11 03:50:00,
2013-09-10 21:55:00,49.7,48.9,29.91,NE,46,2.0,6.0,97,0.01,,BKN001,0.39,VWS V14.00,2013-09-11 03:55:00,
2013-09-10 22:00:00,49.7,48.9,29.92,NE,41,2.0,4.0,97,0.00,,BKN001,0.39,VWS V14.00,2013-09-11 04:00:00,
2013-09-10 22:01:00,49.7,48.9,29.92,NE,46,4.0,4.0,97,0.00,,BKN001,0.39,VWS V14.00,2013-09-11 04:01:00,
2013-09-10 22:02:00,49.7,48.9,29.92,NE,43,1.0,5.0,97,0.00,,BKN001,0.39,VWS V14.00,2013-09-11 04:02:00,
2013-09-10 22:07:00,49.7,48.9,29.92,NE,46,0.0,5.0,97,0.00,,BKN001,0.39,VWS V14.00,2013-09-11 04:07:00,
2013-09-10 22:12:00,49.6,48.8,29.92,NE,53,2.0,5.0,97,0.00,,BKN001,0.39,VWS V14.00,2013-09-11 04:12:00,
2013-09-10 22:17:00,49.4,48.6,29.92,NNE,30,0.0,5.0,97,0.00,,BKN001,0.39,VWS V14.00,2013-09-11 04:17:00,
2013-09-10 22:22:00,49.7,48.9,29.92,NNE,33,0.0,5.0,97,0.00,,BKN001,0.39,VWS V14.00,2013-09-11 04:22:00,
2013-09-10 22:27:00,49.7,48.9,29.92,North,6,2.0,5.0,97,0.00,,BKN001,0.39,VWS V14.00,2013-09-11 04:27:00,
2013-09-10 22:32:00,49.7,48.9,29.92,NNE,27,0.0,2.0,97,0.00,,BKN001,0.39,VWS V14.00,2013-09-11 04:32:00,
2013-09-10 22:37:00,49.7,48.9,29.93,NNE,33,0.0,2.0,97,0.00,,BKN001,0.39,VWS V14.00,2013-09-11 04:37:00,
2013-09-10 22:42:00,49.7,48.9,29.93,NNW,342,3.0,4.0,97,0.00,,BKN001,0.39,VWS V14.00,2013-09-11 04:42:00,
2013-09-10 22:47:00,49.7,48.9,29.92,North,349,4.0,5.0,97,0.00,,BKN001,0.39,VWS V14.00,2013-09-11 04:47:00,
2013-09-10 22:52:00,49.8,49.0,29.92,NNE,20,2.0,5.0,97,0.00,,BKN001,0.39,VWS V14.00,2013-09-11 04:52:00,
2013-09-10 22:57:00,49.9,49.4,29.92,NE,39,0.0,5.0,98,0.00,,BKN001,0.39,VWS V14.00,2013-09-11 04:57:00,
2013-09-10 23:02:00,49.9,49.4,29.92,North,349,2.0,4.0,98,0.00,,BKN001,0.39,VWS V14.00,2013-09-11 05:02:00,
2013-09-10 23:07:00,49.8,49.3,29.92,NNW,345,2.0,4.0,98,0.00,,BKN001,0.39,VWS V14.00,2013-09-11 05:07:00,
2013-09-10 23:12:00,49.7,48.9,29.92,North,5,0.0,4.0,97,0.00,,BKN001,0.39,VWS V14.00,2013-09-11 05:12:00,
2013-09-10 23:17:00,49.7,49.2,29.92,North,352,2.0,4.0,98,0.00,,BKN001,0.39,VWS V14.00,2013-09-11 05:17:00,
2013-09-10 23:22:00,49.6,49.1,29.92,NNE,20,2.0,4.0,98,0.00,,BKN001,0.39,VWS V14.00,2013-09-11 05:22:00,
2013-09-10 23:27:00,49.7,49.2,29.92,NE,35,0.0,4.0,98,0.00,,BKN001,0.39,VWS V14.00,2013-09-11 05:27:00,
2013-09-10 23:32:00,49.6,49.1,29.92,NNE,18,2.0,4.0,98,0.00,,BKN001,0.39,VWS V14.00,2013-09-11 05:32:00,
2013-09-10 23:37:00,49.6,49.1,29.92,North,359,0.0,4.0,98,0.00,,BKN001,0.39,VWS V14.00,2013-09-11 05:37:00,
2013-09-10 23:42:00,49.6,49.1,29.92,North,6,1.0,4.0,98,0.00,,BKN001,0.39,VWS V14.00,2013-09-11 05:42:00,
2013-09-10 23:47:00,49.5,49.0,29.92,NE,39,0.0,4.0,98,0.00,,BKN001,0.39,VWS V14.00,2013-09-11 05:47:00,
2013-09-10 23:52:00,49.6,49.1,29.92,NE,39,0.0,4.0,98,0.00,,BKN001,0.39,VWS V14.00,2013-09-11 05:52:00,
2013-09-10 23:57:00,49.5,49.0,29.92,NNE,18,1.0,4.0,98,0.00,,BKN001,0.39,VWS V14.00,2013-09-11 05:57:00,